Погода Ростов Великий

Хотите узнать прогноз погоды Ростов Великий? Тогда Вам сюда: Погода Ростов Великий

Поиск расширенной информации на нашем сайте:

Полезная информация:

Новости сайта



02.01.2020
Опубликован Долгосрочный прогноз погоды по городам России и ближнего зарубежья на январь 2020 года.
Карты: Прогноз на январь и февраль 2020 года, Сравнение прогнозируемой аномалии приземной температуры воздуха на январь 2020 года по разным моделям.




Погода Ростов Великий - сегодня

Время (UTC), дата Ветер
(°,м/с) 
Видим.   Явления Облачность Т
(°С)
Тd
(°С)
f(%) Тe
(°С)
Pmin
(гПа)
dP
(гПа)
Po
(мм)
O2
(г/м3)
Тmin Tmax R s Состояние
почвы
15 02.07.20 тихо ()   10 км    10/8 600 м кучево-дожд., верхняя 
[Cb cap|Ci fib]
+22.8 +12.8 53 +28  1010.2  0.1  749  276    +24.6  0.0     
18 02.07.20 тихо ()   10 км  в посл. час ливневой дождь  10/9 600 м кучево-дожд., верхняя 
[Cb cap|Ci fib]
+17.1 +15.6 91 +27  1010.6  0.2  749  281           
21 02.07.20 тихо ()   4000 м  слаб. ливневой дождь  10/10 600 м кучево-дожд. 
[Cb cap]
+16.6 +15.6 94 +26  1011.1  0.4  749  281           
00 03.07.20 тихо ()   10 км  {ливн. осадки}  9/8 600 м верхняя 
[Sc|Ci fib]
+16.4 +15.8 96 +27  1011  0.1  749  281           
03 03.07.20 тихо ()   10 км    6/3 600 м верхняя 
[Sc|Ci fib]
+17.9 +16.7 93 +30  1011.4  0.5  750  280  +15.8      влажная 
06 03.07.20 230 (ЮЗ) 10 км    5/3 600 м верхняя 
[Sc|Ci fib]
+21.1 +17.2 78 +34  1011.6  0.3  750  277           
09 03.07.20 270 (З) 10 км    6/3 600 м верхняя 
[Sc|Ci fib]
+24.5 +16.2 60 +35  1012.3  0.8  751  274           
12 03.07.20 270 (З) 10 км    8/5 600 м верхняя 
[Sc|Ci fib]
+26.1 +15.7 53 +36  1012.2  751  273           
15 03.07.20 тихо ()   10 км    9/8 600 м кучево-дожд., средняя 
[Cb cap|Ac As]
+25.2 +17.1 61 +38  1012.2  0.1  750  273    +26.2       
18 03.07.20 тихо ()   4000 м  слаб. ливневой дождь  10/10 600 м кучево-дожд. 
[Cb cap]
+20.8 +18.8 88 +37  1012.7  0.1  751  277           
21 03.07.20 тихо ()   4000 м  слаб. ливневой дождь  10/10 600 м кучево-дожд. 
[Cb cap]
+18.8 +17.4 92 +32  1012.6  -0.1  751  279           
00 04.07.20 тихо ()   4000 м  слаб. ливневой дождь  10/10 600 м кучево-дожд. 
[Cb cap]
+18.4 +17.6 95 +32  1012.4  -0.2  750  279           
03 04.07.20 240 (ЮЗ) 10 км  {ливн. осадки}  10/10 600 м кучево-дожд. 
[Cb cap]
+18.4 +17.7 96 +34  1012.9  0.5  751  279  +18.2    0.3    влажная 
06 04.07.20 тихо ()   10 км  {ливн. осадки}  10/10 600 м кучево-дожд. 
[Cb cap]
+20.2 +17.8 86 +34  1012.6  -0.2  751  278           
09 04.07.20 220 (ЮЗ) 10 км    10/10 600 м кучево-дожд. 
[Cb cap]
+23.7 +18 70 +38  1012.4  0.1  751  274           
12 04.07.20 тихо ()   10 км  слаб. ливневой дождь  10/10 600 м кучево-дожд. 
[Cb cap]
+24.2 +18.3 70 +39  1011.4  -0.9  750  273           
15 04.07.20 290 (З) 10 км    10/10 600 м кучево-дожд. 
[Cb cap]
+24.2 +17.2 65 +37  1011  -0.5  750  274    +25  0.5     
18 04.07.20 тихо ()   10 км    9/9 600 м кучево-дожд. 
[Cb cap]
+20.8 +17.5 81 +34  1011  -0.1  749  277           
21 04.07.20 тихо ()   10 км    6/3 600 м верхняя 
[Sc|Ci]
+16.6 +15.9 96 +27  1011.2  -0.1  749  281           
00 05.07.20 тихо ()   10 км    3/3 600 м верхняя 
[Sc|Ci]
+14.8 +14.3 97 +22  1011.6  0.3  750  284           
03 05.07.20 тихо ()   10 км    10/10 600 м кучево-дожд. 
[Cb cap]
+16.4 +16 97 +27  1011.7  0.2  750  282  +14.4         
06 05.07.20 тихо ()   10 км    3/1 600 м средняя 
[Cu med, cong|Ac trans]
+22.2 +18.2 78 +37  1011.2  -0.3  750  275           
09 05.07.20 160 (Ю) 10 км    8/3 600 м средняя, верхняя 
[Cu med, cong|Ac trans|Ci fib]
+25.5 +15.2 53 +35  1010.6  -0.5  749  273           
12 05.07.20 230 (ЮЗ) 10 км    6/3 600 м средняя 
[Cu med, cong|Ac trans]
+26.7 +14.6 47 +35  1009.4  -1.1  748  272           
15 05.07.20 230 (ЮЗ) 10 км    8/8 1000 м 
[Sc]
+24.9 +16.2 58 +36  1009.1  -0.4  748  273    +26.8       
Время (UTC), дата Ветер
(°,м/с) 
Видим.   Явления Облачность Т
(°С)
Тd
(°С)
f(%) Тe
(°С)
Pmin
(гПа)
dP
(гПа)
Po
(мм)
O2
(г/м3)
Тmin Tmax R s Состояние
почвы

Для получения пояснительной информации подведите курсор к названию столбца.

ПОГОДА Ростов Великий - архив

Всё, что Вы хотите узнать о погоде Ростов Великий - удобно и подробно!

Выберите нужную дату (начиная с 1 января 2019* года) и нажмите кнопку "Найти".
Будут отображены архивные сводки погоды по пункту Ростов Великий, начиная с указанной даты.


Отображать данные в формате CSV (для использования в таблицах Excel)


Внимание! Наш архив погоды предназначен исключительно для личного некоммерческого использования в познавательных целях. Если Вам необходимы официальные справки о состоянии погоды (для производственных, юридических, коммерческих и т.п. целей), обращайтесь в органы Росгидромета.

*Примечание: данная дата относится к архиву по метеостанциям СССР (Россия, СНГ, Балтия).
Архив по метеостанциям Зарубежной Европы и Азии (кроме Китая) хранится 10 дней, по другим регионам земного шара (Китай, Африка, Америка, Австралия, Океания) - 1 день.

Ростов Великий - район местоположения метеостанции


Название, широта, долгота, высота метеостанции:
Ростов Великий 57.2°ш. 39.4°д. 101 м над ур. моря [Российская Федерация]

Дополнительная информация

В oтличие oт бoльшинства пoгoдных сайтoв мы публикуем пoдрoбную метеoинфoрмацию в детальнoм прoфессиoнальнoм фoрмате.

Характеристики температуры и влажнoсти вoздуха измеряются на высoте 2 м в тени вдали oт зданий и деревьев.
Скoрoсть ветра измеряется на высoте 10 м (на урoвне рoста челoвека скoрoсть ветра ниже в 1.5-2 раза). Если метеoстанция нахoдится в гoрoде или в лесу, тo скoрoсть ветра занижена на 2-4 м/с пo сравнению с oткрытым местoм. Скoрoсть ветра над акватoриями крупных рек и oзёр, а также на вершинах хoлмoв на 2-5 м/с выше, чем в oбычных услoвиях.
Атмoсфернoе давление в разных тoчках местнoсти мoжет значительнo oтличаться oт давления на метеoстанции, в зависимoсти oт услoвий рельефа (при пoдъёме на 10 м давление пoнижается примернo на 1 мм рт.ст.).